Location: Cerbedi�res
(48.2182°N, 1.4849°W)
Time: 03:14:41
(UTC+00:00)

Cosmos 2219 Rocket - Pass Details

Date: 03 March 2021
Orbit: 826 x 848 km, 71.0° (Epoch: 17 April)

Event Time Altitude Azimuth Distance (km) Brightness Sun altitude
Rises 21:06:54 0° 226° (SW) 3,358 5.5 -32.0°
Reaches altitude 10° 21:09:25 10° 232° (SW) 2,430 4.8 -32.3°
Maximum altitude 21:14:45 46° 305° (NW) 1,114 3.1 -33.1°
Drops below altitude 10° 21:20:09 10° 19° (NNE) 2,455 4.7 -33.9°
Sets 21:22:43 0° 25° (NNE) 3,396 5.4 -34.2°
